Dalhart, TX

12:53 PM CST on December 08, 2016 (GMT -0600)
Dalhart Municipal

Weather History for KDHT - October, 2011

Change the Weather History Date:

Friday, October 7, 2011

  Actual Average Record
Temperature  
Mean Temperature 68 °F 59 °F  
Max Temperature 84 °F 74 °F 90 °F (1979)
Min Temperature 52 °F 44 °F 30 °F (1952)
Degree Days  
Heating Degree Days 0 7  
Month to date heating degree days 4 42  
Since 1 July heating degree days 27 105  
Cooling Degree Days 3 1  
Month to date cooling degree days 22 7  
Year to date cooling degree days 1785 1135  
Growing Degree Days 18 (Base 50)    
Moisture  
Dew Point 51 °F    
Average Humidity 52    
Maximum Humidity 83    
Minimum Humidity 20    
Precipitation  
Precipitation 0.85 in 0.05 in 0.85 in (2011)
Month to date precipitation 1.24 0.32  
Year to date precipitation 4.73 15.32  
Snow  
Snow 0.00 in 0.00 in T in (1976)
Month to date snowfall 0.0 0.0  
Since 1 July snowfall 0.0 0.0  
Since 1 September snowfall 0.0 0.0  
Snow Depth 0.00 in    
Sea Level Pressure  
Sea Level Pressure 29.75 in    
Wind  
Wind Speed 16 mph (SSW)    
Max Wind Speed 59 mph    
Max Gust Speed 72 mph    
Visibility 8 miles    
Events Rain , Thunderstorm    
T = Trace of Precipitation, MM = Missing Value Source: NWS Daily Summary

Daily Weather History Graph

Daily Weather History Graph

Search for Another Location

Airport or City:

Trip Planner

Search our weather history database for the weather conditions in past years. The results will help you decide how hot, cold, wet, or windy it might be!

Date:

Astronomy

Oct. 07, 2011 Rise Set
Actual Time 7:49 AM CDT 7:25 PM CDT
Civil Twilight 7:24 AM CDT 7:51 PM CDT
Nautical Twilight 6:54 AM CDT 8:20 PM CDT
Astronomical Twilight 6:24 AM CDT 8:50 PM CDT
Moon 5:03 PM CDT (10/7) 3:48 AM CDT (10/7)
Length of Visible Light 12h 26m
Length of Day
11h 35m
Waxing Gibbous, 83% of the Moon is Illuminated
Oct 7
Waxing Gibbous
Oct 11
Full
Oct 19
Last Quarter
Oct 26
New
Nov 2
First Quarter

Hourly Weather History & Observations

Time (CDT) Temp. Dew Point Humidity Pressure Visibility Wind Dir Wind Speed Gust Speed Precip Events Conditions
12:53 AM 69.1 °F 57.0 °F 65% 29.62 in 10.0 mi South 24.2 mph 32.2 mph N/A   Clear
1:53 AM 68.0 °F 57.9 °F 70% 29.63 in 10.0 mi South 23.0 mph - N/A   Clear
2:53 AM 66.0 °F 57.9 °F 75% 29.66 in 10.0 mi South 17.3 mph - N/A   Clear
3:53 AM 66.9 °F 57.9 °F 73% 29.66 in 10.0 mi SSW 16.1 mph - N/A   Mostly Cloudy
4:53 AM 64.9 °F 55.9 °F 73% 29.69 in 10.0 mi SSW 11.5 mph - N/A   Overcast
5:53 AM 61.0 °F 51.1 °F 70% 29.71 in 10.0 mi South 9.2 mph - N/A   Partly Cloudy
6:53 AM 57.0 °F 50.0 °F 77% 29.74 in 10.0 mi SW 8.1 mph - N/A   Clear
7:53 AM 54.0 °F 48.0 °F 80% 29.77 in 10.0 mi SW 4.6 mph - N/A   Clear
8:53 AM 57.9 °F 46.9 °F 67% 29.78 in 10.0 mi SSW 6.9 mph - N/A   Clear
9:53 AM 64.9 °F 45.0 °F 48% 29.79 in 10.0 mi South 10.4 mph - N/A   Clear
11:53 AM 73.4 °F 39.2 °F 29% 29.94 in 10.0 mi SW 11.5 mph - N/A   Clear
12:53 PM 75.0 °F 42.1 °F 31% 29.77 in 10.0 mi SSW 10.4 mph 19.6 mph N/A   Clear
1:53 PM 77.0 °F 43.0 °F 30% 29.75 in 10.0 mi South 17.3 mph 21.9 mph N/A   Clear
2:53 PM 78.1 °F 44.1 °F 30% 29.73 in 10.0 mi SSW 15.0 mph 26.5 mph N/A   Clear
3:53 PM 80.6 °F 44.6 °F 28% 29.86 in 10.0 mi SSW 13.8 mph 26.5 mph N/A   Clear
4:53 PM 80.1 °F 39.0 °F 23% 29.68 in 10.0 mi SSW 15.0 mph 29.9 mph N/A   Partly Cloudy
5:53 PM 82.9 °F 37.0 °F 19% 29.66 in 10.0 mi South 19.6 mph 29.9 mph N/A   Mostly Cloudy
6:53 PM 78.1 °F 46.9 °F 33% 29.67 in 10.0 mi South 15.0 mph 26.5 mph 0.00 in Rain Light Rain
7:53 PM 75.9 °F 46.0 °F 35% 29.67 in 10.0 mi SSE 16.1 mph 24.2 mph 0.00 in   Partly Cloudy
8:53 PM 75.0 °F 55.9 °F 51% 29.68 in 10.0 mi SSE 24.2 mph 29.9 mph N/A   Scattered Clouds
9:31 PM 73.4 °F 55.4 °F 53% 29.81 in 10.0 mi SSE 33.4 mph 41.4 mph N/A Thunderstorm Scattered Clouds
9:46 PM 71.6 °F 51.8 °F 50% 29.80 in 10.0 mi South 18.4 mph 31.1 mph N/A   Scattered Clouds
9:53 PM 70.0 °F 55.0 °F 59% 29.68 in 5.0 mi South 20.7 mph 26.5 mph 0.04 in Rain Rain
9:59 PM 64.4 °F 57.2 °F 77% 29.80 in 2.5 mi South 9.2 mph 26.5 mph 0.03 in Rain , Thunderstorm Heavy Rain
10:07 PM 64.4 °F 57.2 °F 77% 29.80 in 8.0 mi South 6.9 mph - 0.03 in Rain , Thunderstorm Light Thunderstorms and Rain
10:44 PM 66.2 °F 59.0 °F 78% 29.81 in 10.0 mi SSW 9.2 mph - 0.03 in Rain , Thunderstorm Light Thunderstorms and Rain
10:53 PM 62.1 °F 55.0 °F 78% 29.77 in 3.0 mi SSW 48.3 mph 57.5 mph 0.06 in Rain , Thunderstorm Thunderstorms and Rain
10:55 PM 59.0 °F 53.6 °F 82% 29.91 in 1.8 mi SSW 46.0 mph 57.5 mph 0.07 in Rain , Thunderstorm Thunderstorms and Rain
11:34 PM 57.2 °F 53.6 °F 88% 29.83 in 0.8 mi SSW 42.6 mph 72.5 mph 0.74 in Rain , Thunderstorm Light Thunderstorms and Rain
11:38 PM 57.2 °F 53.6 °F 88% 29.80 in 1.0 mi SW 29.9 mph 72.5 mph 0.75 in Rain , Thunderstorm Light Thunderstorms and Rain
11:42 PM 60.8 °F 53.6 °F 77% 29.80 in 2.5 mi SSW 26.5 mph 57.5 mph 0.75 in Rain , Thunderstorm Light Thunderstorms and Rain
11:49 PM 62.6 °F 57.2 °F 82% 29.80 in 10.0 mi South 18.4 mph 31.1 mph 0.75 in Thunderstorm Overcast
11:53 PM 62.1 °F 55.9 °F 80% 29.65 in 10.0 mi South 17.3 mph - 0.75 in   Overcast